Location: Asheville, NC
(35.6000°N, 82.5500°W)
Time: 15:16:58
(UTC-04:00)

KKS-1 - Pass Details

Date: 18 March 2018
Orbit: 638 x 649 km, 98.4° (Epoch: 25 June)

Event Time Altitude Azimuth Distance (km) Brightness Sun altitude
Rises 06:25:41 0° 169° (SSE) 2,946 ? -15.2°
Reaches altitude 10° 06:27:53 10° 170° (S) 2,041 ? -14.8°
Maximum altitude 06:32:20 80° 257° (WSW) 663 ? -13.9°
Drops below altitude 10° 06:36:50 10° 345° (NNW) 2,055 ? -13.0°
Sets 06:39:03 0° 346° (NNW) 2,969 ? -12.5°
